{"data":{"norad_id":57155,"intl_designator":"2023-090BG","name":"STARLINK-6108","alt_names":[],"object_type":"PAYLOAD","status":"ACTIVE","operator":null,"country":"US","launch_date":"2023-06-23","launch_site_code":"AFETR","launch_vehicle":null,"mission":null,"orbit_class":"UNKNOWN","rcs_meters":null,"size_class":null,"mass_kg":null,"dimensions":null,"purposes":["comms"],"wikipedia_slug":null,"has_3d_model":false,"image_url":null,"decayed_at":null,"tle_current":{"epoch":"2026-05-25T03:51:50.309280Z","epoch_age_seconds":61279,"freshness":"FRESH","line1":"1 57155U 23090BG  26145.16099895  .00000007  00000+0  97598-5 0  9991","line2":"2 57155  43.0007 191.8927 0001164 276.1833  83.8886 15.27574396162232","mean_motion":15.27574396,"eccentricity":0.0001164,"inclination_deg":43.0007,"raan_deg":191.8927,"arg_perigee_deg":276.1833,"mean_anomaly_deg":83.8886,"bstar":9.7598e-6,"rev_number":16223,"period_min":94.267094536979,"perigee_km":482.26723246816,"apogee_km":483.8645204978,"semimajor_km":6861.202876483,"source":"CELESTRAK","updated_at":"2026-05-25T13:38:18.250962Z"}}}